(°C)
-3°
-3°
-3°
-2°
-2°
-1°
(°C)
-10°
-10°
-10°
-10°
-9°
-9°
-8°
SV
SV
SV
SV
SV
SV
SV
(km/h)
17-31
18-31
18-28
20-32
21-31
22-35
22-37
(mm)
0
0
0
0
0
0
0
(%)
0
0
0
0
0
0
0

Výška Slnka nad obzorom

/ -14°
sun-icon
UV 2
07:49
17:47
Zmenšujúci sa polmesiac (256°)
00:00
11:22

Správy METAR pre lokalitu Ioánnina (LGIO)

Čas Podmienky Teplota/
Rosný bod
Vietor Viditeľnosť Počasie Oblaky Tlak Zmeniť Nespracované
-3°C / °C 210º variable 350º to 260º 4kt - 1021 - LGIO 240420Z AUTO 21004KT 350V260 //// // ////// M03/M15 Q1021 RE//
-3°C / °C 260º variable 140º to 010º 6kt - 1020 - LGIO 240350Z AUTO 26006KT 140V010 //// // ////// M03/M15 Q1020 RE//
-3°C / °C 270º variable 240º to 330º 4kt - 1020 - LGIO 240320Z AUTO 27004KT 240V330 //// // ////// M03/M16 Q1020 RE//
-2°C / °C 230º variable 180º to 300º 6kt - 1020 - LGIO 240250Z AUTO 23006KT 180V300 //// // ////// M02/M15 Q1020 RE//
-2°C / °C 340º variable 050º to 010º 6kt - 1020 - LGIO 240220Z AUTO 34006KT 050V010 //// // ////// M02/M15 Q1020 RE//
-2°C / °C variable 3kt - 1020 - LGIO 240150Z AUTO VRB03KT //// // ////// M02/M15 Q1020 RE//
-2°C / °C 170º variable 010º to 360º 4kt - 1020 - LGIO 240120Z AUTO 17004KT 010V360 //// // ////// M02/M15 Q1020 RE//
-2°C / °C 340º variable 200º to 080º 4kt - 1020 - LGIO 240050Z AUTO 34004KT 200V080 //// // ////// M02/M14 Q1020 RE//
-2°C / °C 90º variable 340º to 120º 6kt - 1020 - LGIO 240020Z AUTO 09006KT 340V120 //// // ////// M02/M14 Q1020 RE//
-2°C / °C variable 3kt - 1021 - LGIO 232350Z AUTO VRB03KT //// // ////// M02/M13 Q1021 RE//
-3°C / °C variable 1kt - 1021 - LGIO 232320Z AUTO VRB01KT //// // ////// M03/M12 Q1021 RE//
-4°C / °C variable 2kt - 1021 - LGIO 232250Z AUTO VRB02KT //// // ////// M04/M12 Q1021 RE//
-2°C / °C variable 3kt - 1020 - LGIO 232220Z AUTO VRB03KT //// // ////// M02/M12 Q1020 RE//
-2°C / °C variable 2kt - 1020 - LGIO 232150Z AUTO VRB02KT //// // ////// M02/M13 Q1020 RE//
-2°C / °C variable 3kt - 1020 - LGIO 232120Z AUTO VRB03KT //// // ////// M02/M12 Q1020 RE//
-1°C / °C 220º variable 210º to 270º 6kt - 1020 - LGIO 232050Z AUTO 22006KT 210V270 //// // ////// M01/M12 Q1020 RE//
-2°C / °C 270º variable 240º to 310º 4kt - 1020 - LGIO 232020Z AUTO 27004KT 240V310 //// // ////// M02/M12 Q1020 RE//
-2°C / °C variable 2kt - 1020 - LGIO 231950Z AUTO VRB02KT //// // ////// M02/M11 Q1020 RE//
VFR -1°C / °C 250º 3kt >10km - Clouds and Visibility OK 1020 - LGIO 231920Z 25003KT CAVOK M01/M12 Q1020
VFR -2°C / °C 260º 1kt >10km - Clouds and Visibility OK 1020 - LGIO 231850Z 26001KT CAVOK M02/M12 Q1020
VFR 0°C / °C 290º 7kt >10km - Clouds and Visibility OK 1020 - LGIO 231820Z 29007KT CAVOK M00/M13 Q1020
VFR -1°C / °C 300º variable 270º to 340º 4kt >10km - Clouds and Visibility OK 1020 - LGIO 231750Z 30004KT 270V340 CAVOK M01/M13 Q1020
VFR 0°C / °C 360º variable 290º to 010º 6kt >10km - Clouds and Visibility OK 1020 - LGIO 231720Z 36006KT 290V010 CAVOK M00/M13 Q1020
VFR 0°C / °C 290º 6kt >10km - Clouds and Visibility OK 1020 - LGIO 231650Z 29006KT CAVOK M00/M13 Q1020

-3°C / °C

[Viac]
Vietor 210º variable 350º to 260º 4kt
Viditeľnosť
Počasie -
Oblaky
Tlak 1021
Zmeniť -
Nespracované LGIO 240420Z AUTO 21004KT 350V260 //// // ////// M03/M15 Q1021 RE//

-3°C / °C

[Viac]
Vietor 260º variable 140º to 010º 6kt
Viditeľnosť
Počasie -
Oblaky
Tlak 1020
Zmeniť -
Nespracované LGIO 240350Z AUTO 26006KT 140V010 //// // ////// M03/M15 Q1020 RE//

-3°C / °C

[Viac]
Vietor 270º variable 240º to 330º 4kt
Viditeľnosť
Počasie -
Oblaky
Tlak 1020
Zmeniť -
Nespracované LGIO 240320Z AUTO 27004KT 240V330 //// // ////// M03/M16 Q1020 RE//

-2°C / °C

[Viac]
Vietor 230º variable 180º to 300º 6kt
Viditeľnosť
Počasie -
Oblaky
Tlak 1020
Zmeniť -
Nespracované LGIO 240250Z AUTO 23006KT 180V300 //// // ////// M02/M15 Q1020 RE//

-2°C / °C

[Viac]
Vietor 340º variable 050º to 010º 6kt
Viditeľnosť
Počasie -
Oblaky
Tlak 1020
Zmeniť -
Nespracované LGIO 240220Z AUTO 34006KT 050V010 //// // ////// M02/M15 Q1020 RE//

-2°C / °C

[Viac]
Vietor variable 3kt
Viditeľnosť
Počasie -
Oblaky
Tlak 1020
Zmeniť -
Nespracované LGIO 240150Z AUTO VRB03KT //// // ////// M02/M15 Q1020 RE//

-2°C / °C

[Viac]
Vietor 170º variable 010º to 360º 4kt
Viditeľnosť
Počasie -
Oblaky
Tlak 1020
Zmeniť -
Nespracované LGIO 240120Z AUTO 17004KT 010V360 //// // ////// M02/M15 Q1020 RE//

-2°C / °C

[Viac]
Vietor 340º variable 200º to 080º 4kt
Viditeľnosť
Počasie -
Oblaky
Tlak 1020
Zmeniť -
Nespracované LGIO 240050Z AUTO 34004KT 200V080 //// // ////// M02/M14 Q1020 RE//

-2°C / °C

[Viac]
Vietor 90º variable 340º to 120º 6kt
Viditeľnosť
Počasie -
Oblaky
Tlak 1020
Zmeniť -
Nespracované LGIO 240020Z AUTO 09006KT 340V120 //// // ////// M02/M14 Q1020 RE//

-2°C / °C

[Viac]
Vietor variable 3kt
Viditeľnosť
Počasie -
Oblaky
Tlak 1021
Zmeniť -
Nespracované LGIO 232350Z AUTO VRB03KT //// // ////// M02/M13 Q1021 RE//

-3°C / °C

[Viac]
Vietor variable 1kt
Viditeľnosť
Počasie -
Oblaky
Tlak 1021
Zmeniť -
Nespracované LGIO 232320Z AUTO VRB01KT //// // ////// M03/M12 Q1021 RE//

-4°C / °C

[Viac]
Vietor variable 2kt
Viditeľnosť
Počasie -
Oblaky
Tlak 1021
Zmeniť -
Nespracované LGIO 232250Z AUTO VRB02KT //// // ////// M04/M12 Q1021 RE//

-2°C / °C

[Viac]
Vietor variable 3kt
Viditeľnosť
Počasie -
Oblaky
Tlak 1020
Zmeniť -
Nespracované LGIO 232220Z AUTO VRB03KT //// // ////// M02/M12 Q1020 RE//

-2°C / °C

[Viac]
Vietor variable 2kt
Viditeľnosť
Počasie -
Oblaky
Tlak 1020
Zmeniť -
Nespracované LGIO 232150Z AUTO VRB02KT //// // ////// M02/M13 Q1020 RE//

-2°C / °C

[Viac]
Vietor variable 3kt
Viditeľnosť
Počasie -
Oblaky
Tlak 1020
Zmeniť -
Nespracované LGIO 232120Z AUTO VRB03KT //// // ////// M02/M12 Q1020 RE//

-1°C / °C

[Viac]
Vietor 220º variable 210º to 270º 6kt
Viditeľnosť
Počasie -
Oblaky
Tlak 1020
Zmeniť -
Nespracované LGIO 232050Z AUTO 22006KT 210V270 //// // ////// M01/M12 Q1020 RE//

-2°C / °C

[Viac]
Vietor 270º variable 240º to 310º 4kt
Viditeľnosť
Počasie -
Oblaky
Tlak 1020
Zmeniť -
Nespracované LGIO 232020Z AUTO 27004KT 240V310 //// // ////// M02/M12 Q1020 RE//

-2°C / °C

[Viac]
Vietor variable 2kt
Viditeľnosť
Počasie -
Oblaky
Tlak 1020
Zmeniť -
Nespracované LGIO 231950Z AUTO VRB02KT //// // ////// M02/M11 Q1020 RE//

VFR

-1°C / °C

[Viac]
Vietor 250º 3kt
Viditeľnosť >10km
Počasie -
Oblaky Clouds and Visibility OK
Tlak 1020
Zmeniť -
Nespracované LGIO 231920Z 25003KT CAVOK M01/M12 Q1020

VFR

-2°C / °C

[Viac]
Vietor 260º 1kt
Viditeľnosť >10km
Počasie -
Oblaky Clouds and Visibility OK
Tlak 1020
Zmeniť -
Nespracované LGIO 231850Z 26001KT CAVOK M02/M12 Q1020

VFR

0°C / °C

[Viac]
Vietor 290º 7kt
Viditeľnosť >10km
Počasie -
Oblaky Clouds and Visibility OK
Tlak 1020
Zmeniť -
Nespracované LGIO 231820Z 29007KT CAVOK M00/M13 Q1020

VFR

-1°C / °C

[Viac]
Vietor 300º variable 270º to 340º 4kt
Viditeľnosť >10km
Počasie -
Oblaky Clouds and Visibility OK
Tlak 1020
Zmeniť -
Nespracované LGIO 231750Z 30004KT 270V340 CAVOK M01/M13 Q1020

VFR

0°C / °C

[Viac]
Vietor 360º variable 290º to 010º 6kt
Viditeľnosť >10km
Počasie -
Oblaky Clouds and Visibility OK
Tlak 1020
Zmeniť -
Nespracované LGIO 231720Z 36006KT 290V010 CAVOK M00/M13 Q1020

VFR

0°C / °C

[Viac]
Vietor 290º 6kt
Viditeľnosť >10km
Počasie -
Oblaky Clouds and Visibility OK
Tlak 1020
Zmeniť -
Nespracované LGIO 231650Z 29006KT CAVOK M00/M13 Q1020

Správy TAF pre lokalitu Ioánnina (LGIO)

From till


From till Wind 40º 15kt. Visibility 10km or more. Few Clouds 2500ft.
Becoming from till Wind 40º 15kt. Visibility 10km or more. Few Clouds 1000ft. Scattered Clouds 2500ft. Broken Clouds 8000ft.

Nespracované: TAF LGIO 240200Z 2403/2412 04015KT 9999 FEW025 BECMG 2409/2411 9999 FEW010 SCT025 BKN080

Radar a krátkodobá predpoveď zrážok pre Ioánnina

Mrholenie
Slabý
Mierne
Ťažké
Veľmi ťažké
Krúpy

Značka polohy je umiestnená na Ioánnina. Táto animácia ukazuje zrážky pozorované radarom za poslednú hodinu a tiež 1h predpoveď. Mrholenie alebo slabé sneženie môže byť pre radar neviditeľné. Intenzita zrážok je farebne označená od svetlomodrej po oranžovú.

Aktuálne satelitné snímky a snímky zrážok pre lokalitu Ioánnina, Grécko

Značka polohy je umiestnená naIoánnina. [Viac]

Satelitné snímky zhotovované v reálnom čase využívajú viditeľné svetlo počas dňa a infračervené žiarenie počas noci. Vzhľadom na to, že infračervené žiarenie zisťuje teplotné rozdiely, snímka v noci nie je tmavá. Nízke oblaky a hmlu je, žiaľ, ťažké odlíšiť od prízemných teplôt, preto môžu byť počas noci takmer neviditeľné. Meteosat satelitné snímky pre Európu sú aktualizované v reálnom čase každých 5 minút. Snímky z GOES-16/GOES-17 (Severná a Južná Amerika) a Himawari (Ázia) sú aktualizované každých 10 minút.

Zrážky sú odhadované na základe radara a satelitov. V noci sú odhady zrážok zo satelitov menej presné než počas dňa. Oranžové krížiky označujú miesta, kde bol zaznamenaný blesk (za Európa).

Copyright 2022 EUMETSAT / meteoblue. Údaje o bleskoch poskytuje nowcast.